sat.trackr.live / text

‹ back to catalog

STARLINK-31835

NORAD 59772 · 2024-091V

PAYLOAD ACTIVE UNKNOWN

§ Identity

Operator
Country
US
Launch date
2024-05-14
Launch site
AFWTR
Launch vehicle
Mass (kg)
RCS (m²)

Purposes: comms

External: N2YO · Heavens-Above · Gunter

§ Orbital elements

Epoch: 2026-05-24T22:41:23.812800Z

Period
94.01 min
Inclination
53.1605°
Eccentricity
0.0001680
Mean motion
15.31698451 rev/d
Perigee alt
469.6 km
Apogee alt
471.9 km
Semi-major
6,848.9 km
B*
5.1386e-5
RAAN
32.3956°
Arg perigee
81.6099°
Mean anomaly
278.5093°
Rev number
11,468

§ Raw data

STARLINK-318351 59772U 24091V   26144.94541450  .00001229  00000+0  51386-4 0  99952 59772  53.1605  32.3956 0001680  81.6099 278.5093 15.31698451114685

JSON: /api/v1/satellites/59772 · /tle

For live sub-satellite position, see the globe view (requires WebGL).

§ Visibility from observer

Set your observer location to see the next 7 days of passes ≥ 10°. The values pass through the URL so the page stays shareable.

No JS? Fill the form by hand. The geolocation button needs JavaScript.